Location: Mountain View
(37.3861°N, 122.0839°W)
Time: 04:08:12
(UTC-08:00)

Tiangong 1 - Visible Passes

Search period start: 15 December 2017 00:00
Search period end: 25 December 2017 00:00
Orbit: 275 x 302 km, 42.8° (Epoch: 14 December)

Date Brightness Start Highest point End Pass type
(mag) Time Alt. Az. Time Alt. Az. Time Alt. Az.
19 Dec 3.1 05:39:28 14° S 05:40:36 19° SE 05:42:28 10° E visible
20 Dec 1.6 05:43:51 37° S 05:44:07 38° SSE 05:46:30 10° E visible
21 Dec 0.6 05:47:50 69° E 05:47:50 69° E 05:50:07 10° ENE visible
22 Dec 1.2 05:51:30 41° NNE 05:51:30 41° NNE 05:53:29 10° ENE visible
23 Dec 1.8 05:54:53 29° NNE 05:54:53 29° NNE 05:56:41 10° NE visible
24 Dec 2.1 05:58:03 23° N 05:58:03 23° N 05:59:50 10° NE visible
